Flag for U.S.A. Weather past 2 weeks in Huntsville, Alabama, U.S.A.

Now
83 °F

Sunny.


Feels Like: 83 °F
Forecast: 67 / 88 °F
Wind: 9 mph from North

Location: Huntsville International / Jones Field

Current Time: Jul 30, 2015 at 9:08:26 PM

Latest Report: Jul 30, 2015 at 7:53 PM


Visibility: 10 mi

Pressure: 29.98 "Hg

Humidity: 43%

Dew point: 58 °F

Location of HuntsvilleLocation

Historic Weather in Huntsville — Graph

°F

Huntsville temperature yesterday

Maximum temperature yesterday: 89 °F (at 5:53 PM)
Minimum temperature yesterday: 76 °F (at 11:53 AM)
Average temperature yesterday: 81 °F

Past Weeks' High & Low Weather Summary

 TemperatureHumidityPressure
High99 °F (Jul 28, 1:53 PM)90% (Jul 22, 3:53 AM)30.05 "Hg (Jul 22, 3:53 AM)
Low71 °F (Jul 25, 5:53 AM)34% (Jul 30, 5:53 PM)29.81 "Hg (Jul 21, 3:53 AM)
Average84 °F69%29.95 "Hg
* Reported Jul 15 7:53 PM — Jul 30 7:53 PM, Huntsville, Weather by CustomWeather, © 2015

Note: Actual official high and low records may vary slightly from our data, if they occured in-between our weather recording intervals... More about our weather records

Advertising

Huntsville weather history for previous 24 hours

 ConditionsComfort  
Time TempWeatherWind HumidityBarometerVisibility
7:53 PM
Thu, Jul 30
83 °FSunny.9 mph43%29.98 "Hg10 mi
6:53 PM88 °FSunny.10 mph36%29.98 "Hg10 mi
5:53 PM90 °FPassing clouds.12 mph34%29.96 "Hg10 mi
4:53 PM91 °FPassing clouds.15 mph38%29.97 "Hg10 mi
3:53 PM92 °FScattered clouds.13 mph52%29.98 "Hg10 mi
2:53 PM93 °FScattered clouds.8 mph52%30.00 "Hg10 mi
1:53 PM91 °FScattered clouds.8 mph60%30.01 "Hg10 mi
12:53 PM90 °FPartly sunny.12 mph61%30.03 "Hg10 mi
11:53 AM88 °FPartly sunny.10 mph65%30.04 "Hg10 mi
10:53 AM88 °FScattered clouds.8 mph67%30.04 "Hg10 mi
9:53 AM88 °FPartly sunny.12 mph65%30.03 "Hg10 mi
8:53 AM85 °FScattered clouds.12 mph70%30.03 "Hg10 mi
7:53 AM83 °FScattered clouds.10 mph74%30.02 "Hg8 mi
6:53 AM78 °FFog.5 mph87%30.00 "Hg5 mi
5:53 AM76 °FFog.5 mph88%29.98 "Hg3 mi
4:53 AM76 °FFog.No wind88%29.97 "Hg4 mi
3:53 AM77 °FFog.No wind88%29.96 "Hg4 mi
2:53 AM78 °FClear.No wind87%29.97 "Hg7 mi
1:53 AM78 °FClear.No wind87%29.97 "Hg9 mi
12:53 AM79 °FClear.5 mph88%30.00 "Hg9 mi
11:53 PM
Wed, Jul 29
80 °FPassing clouds.No wind85%30.01 "Hg10 mi
10:53 PM79 °FPassing clouds.7 mph88%30.00 "Hg8 mi
9:53 PM81 °FPassing clouds.No wind85%30.00 "Hg10 mi
Weather by CustomWeather, © 2015

See weather overviewHow to use our weather pages